Погода в Екатеринбурге

Погода в Екатеринбурге : погода сейчас, прогноз погоды и архив. Всё, что Вы хотите узнать о погоде в Екатеринбурге!

Хотите узнать прогноз погоды в Екатеринбурге? Тогда Вам сюда: Погода в Екатеринбурге

Поиск расширенной информации на нашем сайте:

Полезная информация:

Другие новости

Новости СМИ2

Главная страница сайта

Новости сайта

03.07.2017

Напоминаем, что на нашем специализированном сайте Метеоцентр.Азия вы можете получить высокодетализированные автоматические прогнозы погоды по пунктам России, СНГ и мира в авиационном формате (включающие направление и скорость ветра, видимость, явления погоды, количество и форму облачности, нижнюю и верхнюю границу облачности).

Рекомендуем:

Погода в Екатеринбурге - сегодня

Время (UTC), дата Ветер
(°,м/с) 
Видим.   Явления Облачность Т
(°С)
Тd
(°С)
f(%) Тe
(°С)
Pmin
(гПа)
dP
(гПа)
Po
(мм)
O2
(г/м3)
Тmin Tmax R s Состояние
почвы
03 19.03.19 140 (ЮВ) 20000 м    8/0 верхняя 
[Cs]
-6.1 -11.7 64 -8  1030.5  -0.3  746  308  -6.2      39  равномерный
мокрый или
старый снег
100% 
06 19.03.19 180 (Ю) 20000 м    4/0 верхняя 
[Cs]
-0 -10.1 47 -1  1029.7  746  301           
09 19.03.19 130 (ЮВ) 20000 м    3/0 верхняя 
[Ci fib]
+3.5 -10.1 36 +2  1028.5  -0.7  745  297           
12 19.03.19 130 (ЮВ) 20000 м    3/0 верхняя 
[Ci fib]
+4 -11.4 32 +3  1028  -0.4  745  297           
15 19.03.19 140 (ЮВ) 10 км    3/0 верхняя 
[Ci fib]
-0.6 -10.1 49 -1  1028.8  0.2  745  302    +4.2       
18 19.03.19 140 (ЮВ) 10 км    ясно 
-3.5 -10.7 57 -5  1028.8  -0.3  745  305           
21 19.03.19 160 (Ю) 10 км    ясно 
-6.3 -10.7 71 -8  1028.3  -0.8  744  308           
00 20.03.19 130 (ЮВ) 10 км    ясно 
-7.9 -10.8 80 -9  1027.6  -0.9  743  310           
03 20.03.19 140 (ЮВ) 10 км    3/0 верхняя 
[Cs]
-8.3 -10.7 83 -8  1027  -0.6  743  310  -8.9      38  равномерный
мокрый или
старый снег
100% 
06 20.03.19 160 (Ю) 10 км    4/0 верхняя 
[Ci fib]
+2.2 -9.2 43 +3  1024.7  -0.8  742  298           
09 20.03.19 160 (Ю) 10 км    8/0 верхняя 
[Cs]
+8.7 -11.5 23 +9  1022.4  -1.5  741  290           
12 20.03.19 180 (Ю) 20000 м    10/0 верхняя 
[Cs]
+10.1 -11.2 21 +11  1020.6  -1.5  740  289           
15 20.03.19 240 (ЮЗ) 10 км    10/0 верхняя 
[Cs]
+5.8 -13.4 24 +6  1020.9  -0.3  740  293    +10.3       
18 20.03.19 210 (ЮЗ) 10 км    10/0 верхняя 
[Cs]
+3 -13.7 28 +4  1020.7  -0.5  740  296           
21 20.03.19 220 (ЮЗ) 10 км    10/0 верхняя 
[Cs]
+1.1 -11.3 39 +2  1020.1  -0.8  739  298           
00 21.03.19 200 (Ю) 10 км    10/0 верхняя 
[Cs]
+0.6 -7.4 55 +1  1019.2  -0.9  738  298           
03 21.03.19 150 (ЮВ) 20000 м    10/3 600 м средняя, верхняя 
[Sc|Ac und|Cc]
-0.3 -6.7 62 1018.5  -0.8  738  298  -1.1      36  равномерный
мокрый или
старый снег
100% 
06 21.03.19 200 (Ю) 20000 м    9/4 600 м средняя, верхняя 
[Sc|Ac trans|Cs]
+5.6 -5.2 46 +6  1017  -0.8  737  292           
09 21.03.19 280 (З) 20000 м    10/6 600 м верхняя 
[Sc|Cs]
+4.6 -1.4 65 +3  1016.9  -0.2  737  292           
12 21.03.19 300 (СЗ) 20000 м    8/8 600 м 
[Sc]
+3.9 -1.7 67 +2  1017.5  0.5  737  293           
15 21.03.19 280 (З) 10 км  {ливн. осадки}  9/9 600 м 
[Sc]
+2.9 -2 70 +2  1018  0.4  738  294    +6.4  0.0     
18 21.03.19 300 (СЗ) 10 км  {ливн. осадки}  8/8 600 м 
[Sc]
+2.4 -1.7 74 +2  1018.4  0.4  738  295           
21 21.03.19 300 (СЗ) 10 км    8/8 600 м 
[Sc]
+1.8 -1.6 78 +1  1018.1  -0.4  738  295           
00 22.03.19 200 (Ю) 10 км  слаб. снег  10/0 средняя 
[As op]
+0.7 -1.4 86 +1  1018  -0.3  737  296           
03 22.03.19 тихо ()   2000 м  слаб. снег{морось}  10/10 300 м 
[Ns]
+0.7 -0.7 90 +1  1017.5  -0.4  737  296  +0.3    0.4  31  равномерный
мокрый или
старый снег
100% 
Время (UTC), дата Ветер
(°,м/с) 
Видим.   Явления Облачность Т
(°С)
Тd
(°С)
f(%) Тe
(°С)
Pmin
(гПа)
dP
(гПа)
Po
(мм)
O2
(г/м3)
Тmin Tmax R s Состояние
почвы

Для получения пояснительной информации подведите курсор к названию столбца.

ПОГОДА в Екатеринбурге - архив

Всё, что Вы хотите узнать о погоде в Екатеринбурге - удобно и подробно!

Выберите нужную дату (начиная с 1 января 2018* года) и нажмите кнопку "Найти".
Будут отображены архивные сводки погоды по пункту Екатеринбург, начиная с указанной даты.


Отображать данные в формате CSV (для использования в таблицах Excel)


Внимание! Наш архив погоды предназначен исключительно для личного некоммерческого использования в познавательных целях. Если Вам необходимы официальные справки о состоянии погоды (для производственных, юридических, коммерческих и т.п. целей), обращайтесь в органы Росгидромета.

*Примечание: данная дата относится к архиву по метеостанциям СССР (Россия, СНГ, Балтия).
Архив по метеостанциям Зарубежной Европы и Азии (кроме Китая) хранится 10 дней, по другим регионам земного шара (Китай, Африка, Америка, Австралия, Океания) - 1 день.

Екатеринбург - район местоположения метеостанции


Название, широта, долгота, высота метеостанции:
Екатеринбург (город) 56.8°ш. 60.6°д. 283 м над ур. моря [Российская Федерация]

Дополнительная информация

В oтличие oт бoльшинства пoгoдных сайтoв мы публикуем пoдрoбную метеoинфoрмацию в детальнoм прoфессиoнальнoм фoрмате.

Характеристики температуры и влажнoсти вoздуха измеряются на высoте 2 м в тени вдали oт зданий и деревьев.
Скoрoсть ветра измеряется на высoте 10 м (на урoвне рoста челoвека скoрoсть ветра ниже в 1.5-2 раза). Если метеoстанция нахoдится в гoрoде или в лесу, тo скoрoсть ветра занижена на 2-4 м/с пo сравнению с oткрытым местoм. Скoрoсть ветра над акватoриями крупных рек и oзёр, а также на вершинах хoлмoв на 2-5 м/с выше, чем в oбычных услoвиях.
Атмoсфернoе давление в разных тoчках местнoсти мoжет значительнo oтличаться oт давления на метеoстанции, в зависимoсти oт услoвий рельефа (при пoдъёме на 10 м давление пoнижается примернo на 1 мм рт.ст.).